DW5678 Kavala GR current weather conditions

sailwx.info

Wind from 229 at 0 knots gusting 6

Air temperature 11.1° C
Dewpoint 4.6° C

Last reported at 2015-Apr-02 06:45 UTC.
Time now 2015-Apr-02 07:55 UTC

Location: N 40°56' E 024°24'.
View on Google Maps.

See reports from other nearby stations

  
Tides and Currents Weather Stations Pressure Air Temp Water Temp Dewpoint Dewpoint Depression Visibility Wind Speed Wind Dir Waves Ship Positions
date/time (UTC)wind fromknots sea level pressurealtimeterstation pressurevisibilityair tempwater tempwave heightnotes
2015-Apr-02 06:45 229 0 gusting 6 11.1
2015-Apr-02 06:30 270 0 gusting 6 10.6
2015-Apr-02 06:15 332 0 gusting 5 10.6
2015-Apr-02 06:00 330 1 gusting 6 10.6
2015-Apr-02 05:45 011 1 gusting 5 10.0
2015-Apr-02 05:30 347 9.4
2015-Apr-02 05:15 183 8.9
2015-Apr-02 05:00 140 8.3
2015-Apr-02 04:45 267 0 gusting 2 7.8
2015-Apr-02 04:30 009 8.3
2015-Apr-02 04:15 328 0 gusting 1 8.3
2015-Apr-02 04:00 094 7.8
2015-Apr-02 03:45 326 7.8
2015-Apr-02 03:30 333 0 gusting 2 8.3
2015-Apr-02 03:15 348 8.3
2015-Apr-02 03:00 023 1 gusting 4 8.3
2015-Apr-02 02:45 355 8.9
2015-Apr-02 02:30 015 8.9
2015-Apr-02 02:15 351 8.9
2015-Apr-02 02:00 331 8.9
2015-Apr-02 01:45 165 0 gusting 1 8.9
2015-Apr-02 01:30 036 1 gusting 2 8.9
2015-Apr-02 01:15 034 0 gusting 2 9.4
2015-Apr-02 01:00 021 9.4
2015-Apr-02 00:45 026 9.4
2015-Apr-02 00:30 023 9.4
2015-Apr-02 00:15 033 0 gusting 4 9.4
2015-Apr-02 00:00 041 1 gusting 5 10.0
2015-Apr-01 23:45 005 2 gusting 4 10.0
2015-Apr-01 23:30 044 1 gusting 2 10.0
2015-Apr-01 23:15 060 10.6
2015-Apr-01 23:00 100 0 gusting 6 10.6
2015-Apr-01 22:45 080 0 gusting 2 11.1
2015-Apr-01 22:30 020 11.1
2015-Apr-01 22:15 047 2 gusting 6 11.1
2015-Apr-01 22:00 085 11.7
2015-Apr-01 21:45 027 11.7
2015-Apr-01 21:30 012 0 gusting 2 11.7
2015-Apr-01 21:15 052 0 gusting 2 11.7
2015-Apr-01 21:00 114 12.2
2015-Apr-01 20:45 153 12.8
2015-Apr-01 20:30 098 12.8
2015-Apr-01 20:15 101 13.3
2015-Apr-01 20:00 130 0 gusting 2 13.3
2015-Apr-01 19:45 322 0 gusting 2 13.3
2015-Apr-01 19:30 040 13.3
2015-Apr-01 19:15 018 13.9
2015-Apr-01 19:00 070 0 gusting 5 13.9
2015-Apr-01 18:45 070 2 gusting 5 13.9
2015-Apr-01 18:30 225 14.4
2015-Apr-01 18:15 055 14.4
2015-Apr-01 18:00 051 14.4
2015-Apr-01 17:45 051 14.4
2015-Apr-01 17:30 051 14.4
2015-Apr-01 17:15 041 14.4
2015-Apr-01 17:00 056 0 gusting 2 14.4
2015-Apr-01 16:45 058 14.4
2015-Apr-01 16:30 084 14.4
2015-Apr-01 16:15 113 0 gusting 2 15.0
2015-Apr-01 16:00 119 0 gusting 2 15.0
2015-Apr-01 15:45 131 0 gusting 2 15.0
2015-Apr-01 15:30 136 15.0
2015-Apr-01 15:15 128 15.0
2015-Apr-01 15:00 101 1 gusting 2 15.6
2015-Apr-01 14:45 096 15.0
2015-Apr-01 14:30 131 0 gusting 5 15.0
2015-Apr-01 14:15 126 0 gusting 5 15.0
2015-Apr-01 14:00 125 2 gusting 4 15.0
2015-Apr-01 13:45 132 2 gusting 5 15.0
2015-Apr-01 13:30 141 1 gusting 4 15.6
2015-Apr-01 13:15 141 0 gusting 4 15.6
2015-Apr-01 13:00 155 0 gusting 5 15.6
2015-Apr-01 12:45 169 1 gusting 4 16.7
2015-Apr-01 12:30 254 0 gusting 2 16.1
2015-Apr-01 12:15 223 1 gusting 4 16.1
2015-Apr-01 12:00 171 0 gusting 2 16.1
2015-Apr-01 11:45 174 0 gusting 2 15.6
2015-Apr-01 11:30 191 1 gusting 2 16.7
2015-Apr-01 11:15 130 0 gusting 2 16.1
2015-Apr-01 11:00 215 0 gusting 4 16.1
2015-Apr-01 10:45 159 0 gusting 6 15.0
2015-Apr-01 10:30 166 1 gusting 4 15.0
2015-Apr-01 10:15 132 0 gusting 4 16.1
2015-Apr-01 10:00 139 0 gusting 5 16.1
2015-Apr-01 09:45 159 1 gusting 6 16.1
2015-Apr-01 09:30 096 2 gusting 7 16.1
2015-Apr-01 09:15 135 2 gusting 6 15.6
2015-Apr-01 09:00 095 2 gusting 6 15.6
2015-Apr-01 08:45 129 1 gusting 6 15.0
2015-Apr-01 08:30 140 2 gusting 6 14.4
2015-Apr-01 08:15 021 0 gusting 6 14.4
2015-Apr-01 08:00 099 1 gusting 6 13.9
2015-Apr-01 07:45 105 2 gusting 6 13.9
2015-Apr-01 07:30 098 0 gusting 5 13.9
2015-Apr-01 07:15 081 0 gusting 2 12.8
2015-Apr-01 07:00 108 0 gusting 2 12.8
2015-Apr-01 06:45 129 0 gusting 2 13.3
2015-Apr-01 06:15 180 12.2
2015-Apr-01 06:00 115 0 gusting 4 12.2
2015-Apr-01 05:45 232 0 gusting 2 12.2
2015-Apr-01 05:30 255 0 gusting 2 11.1
2015-Apr-01 05:15 275 10.0
2015-Apr-01 05:00 275 9.4
2015-Apr-01 04:45 275 9.4
2015-Apr-01 04:30 271 9.4
2015-Apr-01 04:15 262 9.4
2015-Apr-01 04:00 262 10.0
2015-Apr-01 03:45 262 10.0
2015-Apr-01 03:30 262 10.0
2015-Apr-01 03:15 262 10.0
2015-Apr-01 03:00 262 10.0
2015-Apr-01 02:45 262 10.6
2015-Apr-01 02:30 262 10.6
2015-Apr-01 02:15 262 10.6
2015-Apr-01 02:00 262 10.6
2015-Apr-01 01:45 262 10.6
2015-Apr-01 01:30 262 10.6
2015-Apr-01 01:15 262 11.1
2015-Apr-01 01:00 262 11.1
2015-Apr-01 00:45 262 0 gusting 1 11.1
2015-Apr-01 00:30 262 11.1
2015-Apr-01 00:15 262 11.1
2015-Apr-01 00:00 262 11.1
2015-Mar-31 23:45 262 11.1
2015-Mar-31 23:30 262 11.1
2015-Mar-31 23:15 262 11.1
2015-Mar-31 23:00 262 11.1
2015-Mar-31 22:45 262 11.1
2015-Mar-31 22:30 262 11.1
2015-Mar-31 22:15 262 11.7
2015-Mar-31 22:00 262 11.7
2015-Mar-31 21:45 262 11.7
2015-Mar-31 21:30 262 11.7
2015-Mar-31 21:15 262 12.2
2015-Mar-31 21:00 262 12.2
2015-Mar-31 20:45 262 12.2
2015-Mar-31 20:30 262 12.2
2015-Mar-31 20:15 258 12.2
2015-Mar-31 20:00 248 0 gusting 2 12.8
2015-Mar-31 19:45 277 12.8
2015-Mar-31 19:30 236 12.8
2015-Mar-31 19:15 262 12.8
2015-Mar-31 19:00 265 12.8
2015-Mar-31 18:45 259 0 gusting 4 12.8
2015-Mar-31 18:30 263 12.8
2015-Mar-31 18:15 218 0 gusting 6 12.8
2015-Mar-31 18:00 237 0 gusting 2 12.8
2015-Mar-31 17:45 251 1 gusting 6 12.8
2015-Mar-31 17:30 193 1 gusting 4 13.3
2015-Mar-31 17:15 212 0 gusting 2 13.3
2015-Mar-31 17:00 228 1 gusting 4 13.3
2015-Mar-31 16:45 167 0 gusting 2 13.3
2015-Mar-31 16:30 214 1 gusting 5 13.3
2015-Mar-31 16:15 212 1 gusting 4 13.9
2015-Mar-31 16:00 217 1 gusting 6 13.9
2015-Mar-31 15:45 223 1 gusting 5 14.4
2015-Mar-31 15:30 205 2 gusting 5 15.0
2015-Mar-31 15:15 221 0 gusting 6 14.4
2015-Mar-31 15:00 198 3 gusting 6 15.0
2015-Mar-31 14:45 198 3 gusting 6 15.0
2015-Mar-31 14:30 188 1 gusting 5 15.0
2015-Mar-31 14:15 224 2 gusting 5 15.0
2015-Mar-31 14:00 219 2 gusting 6 15.0
2015-Mar-31 13:45 212 1 gusting 5 15.0
2015-Mar-31 13:30 194 1 gusting 4 15.0
2015-Mar-31 13:15 178 0 gusting 2 15.0
2015-Mar-31 13:00 120 0 gusting 5 14.4
2015-Mar-31 12:45 195 0 gusting 5 14.4
2015-Mar-31 12:30 224 0 gusting 6 15.6
2015-Mar-31 12:15 130 1 gusting 2 14.4
2015-Mar-31 12:00 148 1 gusting 6 14.4
2015-Mar-31 11:45 130 0 gusting 6 14.4
2015-Mar-31 11:30 239 1 gusting 4 15.0
2015-Mar-31 11:15 227 1 gusting 6 15.0
2015-Mar-31 11:00 230 1 gusting 5 15.6
2015-Mar-31 10:45 217 0 gusting 6 15.0
2015-Mar-31 10:30 152 15.0
2015-Mar-31 10:15 151 1 gusting 4 14.4
2015-Mar-31 10:00 162 1 gusting 6 15.0
2015-Mar-31 09:45 191 1 gusting 4 15.0
2015-Mar-31 09:30 208 0 gusting 5 15.0
2015-Mar-31 09:15 201 2 gusting 5 14.4
2015-Mar-31 09:00 176 0 gusting 5 13.9
2015-Mar-31 08:45 186 0 gusting 2 13.3
2015-Mar-31 08:30 158 0 gusting 2 13.3
2015-Mar-31 08:15 219 0 gusting 4 13.9
2015-Mar-31 08:00 221 0 gusting 4 14.4
2015-Mar-31 07:45 147 0 gusting 2 14.4
2015-Mar-31 07:30 165 0 gusting 4 14.4
2015-Mar-31 07:15 195 0 gusting 4 13.9
2015-Mar-31 07:00 125 1 gusting 2 13.3